Location: Napier
(39.4830°S, 176.9170°E)
Time: 10:02:17
(UTC+13:00)

Cosmos 2181 Rocket - Pass Details

Date: 24 January 2019
Orbit: 952 x 1015 km, 82.9° (Epoch: 20 February)

Event Time Altitude Azimuth Distance (km) Brightness Sun altitude
Rises 23:30:15 0° 185° (S) 3,674 8.1 -25.5°
Reaches altitude 10° 23:32:47 10° 183° (S) 2,727 7.1 -25.8°
Maximum altitude 23:39:01 71° 99° (E) 1,035 4.0 -26.3°
Enters shadow 23:39:46 64° 54° (NE) 1,080 3.9 -26.4°
